Location: Lac Lasalle
(46.0398°N, 74.1576°W)
Time: 14:03:36
(UTC-04:00)

ISS - Pass Details

Date: 25 March 2019
Orbit: 408 x 410 km, 51.6° (Epoch: 22 April)

Event Time Altitude Azimuth Distance (km) Brightness Sun altitude
Rises 19:48:13 0° 237° (WSW) 2,328 0.8 -6.4°
Reaches altitude 10° 19:50:17 10° 236° (WSW) 1,469 -0.2 -6.8°
Maximum altitude 19:53:35 79° 150° (SSE) 421 -3.8 -7.4°
Drops below altitude 10° 19:56:53 10° 64° (ENE) 1,474 -1.5 -7.9°
Enters shadow 19:57:36 - 64° (ENE) 1,772 -1.1 -8.0°
